Location: Catstown
(52.4386°N, 7.2633°W)
Time: 22:35:50
(UTC+00:00)

Cosmos 1844 - Pass Details

Date: 18 September 2020
Orbit: 824 x 866 km, 70.9° (Epoch: 20 October)

Event Time Altitude Azimuth Distance (km) Brightness Sun altitude
Rises 21:10:09 0° 205° (SSW) 3,412 6.7 -22.7°
Reaches altitude 10° 21:12:36 10° 204° (SSW) 2,474 6.0 -23.0°
Maximum altitude 21:18:17 81° 119° (ESE) 862 3.5 -23.7°
Drops below altitude 10° 21:23:56 10° 33° (NNE) 2,461 6.2 -24.4°
Sets 21:26:22 0° 32° (NNE) 3,393 6.9 -24.7°
